• în România
  • Lista ţărilor
  • Pe 7 zile
  • Temperatura apei
  • Hartă satelitară
  • Meteo pe hartă
  • Widget-uri
  • user-avatar
    Intrare

    Meteo pe oră la Konstantyna

    Astăzi, 29 Martie, Miercuri

    Timp Temperatura Precipitaţii Vânt Presiune Umiditate
    00:00 +7°C° 0 mm 1 m/s 715 mmHg 95%
    01:00 +7°C° 0 mm 1 m/s 715 mmHg 95%
    02:00 +8°C° 0 mm 1 m/s 715 mmHg 94%
    03:00 +7°C° 0 mm 2 m/s 714 mmHg 94%
    04:00 +7°C° 0 mm 2 m/s 715 mmHg 92%
    05:00 +7°C° 0 mm 2 m/s 715 mmHg 91%
    06:00 +8°C° 0 mm 2 m/s 715 mmHg 89%
    07:00 +9°C° 0 mm 2 m/s 716 mmHg 81%
    08:00 +10°C° 0 mm 3 m/s 716 mmHg 73%
    09:00 +11°C° 0 mm 3 m/s 716 mmHg 65%
    10:00 +12°C° 0 mm 3 m/s 716 mmHg 58%
    11:00 +14°C° 0 mm 4 m/s 716 mmHg 51%
    12:00 +15°C° 0 mm 4 m/s 716 mmHg 45%
    13:00 +15°C° 0 mm 4 m/s 716 mmHg 44%
    14:00 +15°C° 0 mm 4 m/s 716 mmHg 44%
    15:00 +15°C° 0 mm 4 m/s 715 mmHg 43%
    16:00 +13°C° 0 mm 3 m/s 715 mmHg 56%
    17:00 +10°C° 0 mm 3 m/s 715 mmHg 68%
    18:00 +8°C° 0 mm 2 m/s 714 mmHg 80%
    19:00 +7°C° 0 mm 1 m/s 715 mmHg 84%
    20:00 +6°C° 0 mm 1 m/s 715 mmHg 89%
    21:00 +4°C° 0 mm 1 m/s 715 mmHg 93%
    22:00 +4°C° 0 mm 1 m/s 715 mmHg 92%
    23:00 +5°C° 0 mm 1 m/s 715 mmHg 92%

    Mâine, 30 Martie, Joi

    Timp Temperatura Precipitaţii Vânt Presiune Umiditate
    00:00 +5°C° 0 mm 1 m/s 715 mmHg 91%
    01:00 +5°C° 0 mm 1 m/s 715 mmHg 90%
    02:00 +5°C° 0 mm 1 m/s 715 mmHg 89%
    03:00 +4°C° 0 mm 1 m/s 715 mmHg 87%
    04:00 +5°C° 0 mm 1 m/s 715 mmHg 84%
    05:00 +5°C° 0 mm 1 m/s 715 mmHg 81%
    06:00 +6°C° 0 mm 1 m/s 715 mmHg 78%
    07:00 +9°C° 0 mm 1 m/s 716 mmHg 66%
    08:00 +13°C° 0 mm 1 m/s 716 mmHg 54%
    09:00 +18°C° 0 mm 1 m/s 717 mmHg 42%
    10:00 +19°C° 0 mm 1 m/s 717 mmHg 38%
    11:00 +21°C° 0 mm 1 m/s 717 mmHg 33%
    12:00 +22°C° 0 mm 1 m/s 717 mmHg 29%
    13:00 +22°C° 0 mm 1 m/s 717 mmHg 30%
    14:00 +21°C° 0 mm 2 m/s 716 mmHg 31%
    15:00 +21°C° 0 mm 2 m/s 716 mmHg 32%
    16:00 +18°C° 0 mm 2 m/s 715 mmHg 45%
    17:00 +15°C° 0 mm 2 m/s 715 mmHg 59%
    18:00 +10°C° 0 mm 2 m/s 714 mmHg 72%
    19:00 +10°C° 0 mm 1 m/s 715 mmHg 78%
    20:00 +9°C° 0 mm 1 m/s 715 mmHg 84%
    21:00 +8°C° 0 mm 1 m/s 715 mmHg 90%
    22:00 +8°C° 0 mm 1 m/s 715 mmHg 87%
    23:00 +8°C° 0 mm 1 m/s 715 mmHg 85%

    Poimâine, 31 Martie, Vineri

    Timp Temperatura Precipitaţii Vânt Presiune Umiditate
    00:00 +7°C° 0 mm 2 m/s 714 mmHg 82%
    01:00 +7°C° 0 mm 2 m/s 714 mmHg 79%
    02:00 +7°C° 0 mm 2 m/s 714 mmHg 75%
    03:00 +7°C° 0 mm 2 m/s 713 mmHg 71%
    04:00 +7°C° 0 mm 2 m/s 713 mmHg 66%
    05:00 +7°C° 0 mm 2 m/s 713 mmHg 61%
    06:00 +8°C° 0 mm 2 m/s 713 mmHg 56%
    07:00 +12°C° 0 mm 2 m/s 714 mmHg 47%
    08:00 +16°C° 0 mm 3 m/s 714 mmHg 38%
    09:00 +20°C° 0 mm 3 m/s 715 mmHg 28%
    10:00 +22°C° 0 mm 3 m/s 714 mmHg 25%
    11:00 +25°C° 0 mm 3 m/s 714 mmHg 22%
    12:00 +26°C° 0 mm 3 m/s 714 mmHg 18%
    13:00 +26°C° 0 mm 3 m/s 714 mmHg 21%
    14:00 +25°C° 0 mm 3 m/s 713 mmHg 23%
    15:00 +25°C° 0 mm 3 m/s 713 mmHg 26%
    16:00 +21°C° 0 mm 3 m/s 712 mmHg 36%
    17:00 +17°C° 0 mm 2 m/s 712 mmHg 47%
    18:00 +14°C° 0 mm 1 m/s 711 mmHg 57%
    19:00 +13°C° 0 mm 1 m/s 712 mmHg 60%
    20:00 +12°C° 0 mm 1 m/s 712 mmHg 62%
    21:00 +11°C° 0 mm 1 m/s 712 mmHg 64%
    22:00 +11°C° 0 mm 1 m/s 711 mmHg 61%
    23:00 +11°C° 0 mm 1 m/s 711 mmHg 58%

    1 Aprilie, Sâmbătă

    Timp Temperatura Precipitaţii Vânt Presiune Umiditate
    00:00 +11°C° 0 mm 1 m/s 711 mmHg 54%
    01:00 +11°C° 0 mm 1 m/s 710 mmHg 53%
    02:00 +9°C° 0 mm 2 m/s 710 mmHg 51%
    03:00 +9°C° 0 mm 2 m/s 709 mmHg 49%
    04:00 +9°C° 0 mm 2 m/s 709 mmHg 50%
    05:00 +11°C° 0 mm 1 m/s 709 mmHg 50%
    06:00 +11°C° 0 mm 1 m/s 709 mmHg 50%
    07:00 +14°C° 0 mm 2 m/s 710 mmHg 44%
    08:00 +17°C° 0 mm 2 m/s 710 mmHg 38%
    09:00 +20°C° 0 mm 2 m/s 710 mmHg 32%
    10:00 +21°C° 0 mm 3 m/s 710 mmHg 31%
    11:00 +22°C° 0 mm 4 m/s 710 mmHg 30%
    12:00 +23°C° 0 mm 5 m/s 710 mmHg 30%
    13:00 +20°C° 0,8 mm 5 m/s 709 mmHg 44%
    14:00 +17°C° 0,8 mm 5 m/s 709 mmHg 59%
    15:00 +14°C° 0,8 mm 5 m/s 708 mmHg 74%
    16:00 +13°C° 1,4 mm 4 m/s 708 mmHg 78%
    17:00 +11°C° 1,4 mm 3 m/s 709 mmHg 83%
    18:00 +10°C° 1,4 mm 3 m/s 709 mmHg 87%
    19:00 +8°C° 0,1 mm 3 m/s 709 mmHg 89%
    20:00 +7°C° 0,1 mm 2 m/s 709 mmHg 91%
    21:00 +6°C° 0,1 mm 2 m/s 710 mmHg 93%
    22:00 +5°C° 0,1 mm 3 m/s 709 mmHg 93%
    23:00 +5°C° 0,1 mm 3 m/s 709 mmHg 93%

    2 Aprilie, Duminică

    Timp Temperatura Precipitaţii Vânt Presiune Umiditate
    00:00 +5°C° 0,1 mm 3 m/s 709 mmHg 93%
    01:00 +7°C° 0,2 mm 3 m/s 709 mmHg 93%
    02:00 +6°C° 0,2 mm 4 m/s 709 mmHg 92%
    03:00 +6°C° 0,2 mm 4 m/s 709 mmHg 91%
    04:00 +6°C° 0,1 mm 4 m/s 709 mmHg 92%
    05:00 +6°C° 0,1 mm 4 m/s 709 mmHg 92%
    06:00 +6°C° 0,1 mm 4 m/s 709 mmHg 92%
    07:00 +7°C° 0,1 mm 4 m/s 709 mmHg 86%
    08:00 +8°C° 0,1 mm 5 m/s 710 mmHg 81%
    09:00 +9°C° 0,1 mm 5 m/s 710 mmHg 76%
    10:00 +10°C° 0,2 mm 6 m/s 710 mmHg 70%
    11:00 +11°C° 0,2 mm 6 m/s 710 mmHg 64%
    12:00 +12°C° 0,2 mm 7 m/s 710 mmHg 58%
    13:00 +12°C° 0,2 mm 7 m/s 710 mmHg 58%
    14:00 +12°C° 0,2 mm 7 m/s 710 mmHg 58%
    15:00 +12°C° 0,2 mm 7 m/s 710 mmHg 58%
    16:00 +10°C° 0,1 mm 6 m/s 710 mmHg 65%
    17:00 +9°C° 0,1 mm 5 m/s 710 mmHg 71%
    18:00 +8°C° 0,1 mm 4 m/s 710 mmHg 78%
    19:00 +7°C° 0,1 mm 4 m/s 711 mmHg 82%
    20:00 +7°C° 0,1 mm 3 m/s 711 mmHg 87%
    21:00 +7°C° 0,1 mm 3 m/s 711 mmHg 91%
    22:00 +7°C° 0 mm 3 m/s 711 mmHg 92%
    23:00 +5°C° 0 mm 3 m/s 711 mmHg 93%

    3 Aprilie, Luni

    Timp Temperatura Precipitaţii Vânt Presiune Umiditate
    00:00 +5°C° 0 mm 3 m/s 710 mmHg 94%
    01:00 +5°C° 0,1 mm 3 m/s 710 mmHg 93%
    02:00 +5°C° 0,1 mm 3 m/s 710 mmHg 93%
    03:00 +5°C° 0,1 mm 3 m/s 710 mmHg 93%
    04:00 +7°C° 0,2 mm 3 m/s 710 mmHg 92%
    05:00 +7°C° 0,2 mm 3 m/s 710 mmHg 91%
    06:00 +7°C° 0,2 mm 3 m/s 710 mmHg 90%
    07:00 +8°C° 0,8 mm 3 m/s 711 mmHg 89%
    08:00 +9°C° 0,8 mm 3 m/s 711 mmHg 88%
    09:00 +9°C° 0,8 mm 3 m/s 711 mmHg 87%
    10:00 +11°C° 0,2 mm 3 m/s 711 mmHg 84%
    11:00 +12°C° 0,2 mm 3 m/s 711 mmHg 81%
    12:00 +13°C° 0,2 mm 3 m/s 712 mmHg 78%
    13:00 +13°C° 0,2 mm 3 m/s 711 mmHg 74%
    14:00 +14°C° 0,2 mm 4 m/s 711 mmHg 71%
    15:00 +14°C° 0,2 mm 4 m/s 711 mmHg 68%
    16:00 +12°C° 0,1 mm 3 m/s 711 mmHg 76%
    17:00 +12°C° 0,1 mm 2 m/s 712 mmHg 84%
    18:00 +9°C° 0,1 mm 2 m/s 712 mmHg 92%
    19:00 +9°C° 0 mm 1 m/s 712 mmHg 94%
    20:00 +8°C° 0 mm 1 m/s 712 mmHg 96%
    21:00 +7°C° 0 mm 1 m/s 712 mmHg 98%
    22:00 +7°C° 0 mm 1 m/s 712 mmHg 98%
    23:00 +7°C° 0 mm 1 m/s 712 mmHg 98%
    Arată mai mult